Estación de Yerbas Buenas
Ultimos registro cada 15 minutos 87
| N° | Estación | Fecha / Hora | Temperatura | Humedad | Lluvia | Velocidad | Dirección | Radiación | Presion |
| 87 | Yerbas Buenas | 05-05-2026 21:30 | 13,7 | 82,9 | 0 | 0 | 55 | 0,6 | 996,7 |
| 86 | Yerbas Buenas | 05-05-2026 21:15 | 14,2 | 80,7 | 0 | 0 | 45 | 0,6 | 997,2 |
| 85 | Yerbas Buenas | 05-05-2026 21:00 | 14,4 | 79,6 | 0 | 0 | 60 | 0,6 | 996,8 |
| 84 | Yerbas Buenas | 05-05-2026 20:45 | 14,7 | 77,9 | 0 | 0 | 42 | 0,6 | 996,8 |
| 83 | Yerbas Buenas | 05-05-2026 20:30 | 14,8 | 77,4 | 0 | 0 | 313 | 0,6 | 996,9 |
| 82 | Yerbas Buenas | 05-05-2026 20:15 | 15 | 76,6 | 0 | 0 | 338 | 0,6 | 996,9 |
| 81 | Yerbas Buenas | 05-05-2026 20:00 | 15,2 | 75,5 | 0 | 0 | 347 | 0,6 | 996,6 |
| 80 | Yerbas Buenas | 05-05-2026 19:45 | 15,2 | 75,7 | 0 | 0 | 49 | 0,6 | 996,6 |
| 79 | Yerbas Buenas | 05-05-2026 19:30 | 15,1 | 78,2 | 0 | 0 | 53 | 0,6 | 996,2 |
| 78 | Yerbas Buenas | 05-05-2026 19:15 | 15,6 | 75,8 | 0 | 0 | 21 | 0,6 | 996,2 |
| 77 | Yerbas Buenas | 05-05-2026 19:00 | 15,7 | 75,7 | 0 | 0 | 32 | 0,6 | 996,3 |
| 76 | Yerbas Buenas | 05-05-2026 18:45 | 16,1 | 74,7 | 0 | 0 | 14 | 0,6 | 996,1 |
| 75 | Yerbas Buenas | 05-05-2026 18:30 | 16 | 79,2 | 0 | 0 | 0 | 0,6 | 996 |
| 74 | Yerbas Buenas | 05-05-2026 18:15 | 16,4 | 78,9 | 0 | 0 | 32 | 0,6 | 996 |
| 73 | Yerbas Buenas | 05-05-2026 18:00 | 16,4 | 78,8 | 0 | 0 | 93 | 0,6 | 996 |
| 72 | Yerbas Buenas | 05-05-2026 17:45 | 16,7 | 78 | 0 | 0 | 93 | 1,9 | 995,7 |
| 71 | Yerbas Buenas | 05-05-2026 17:30 | 16,9 | 77,7 | 0 | 0 | 94 | 13,1 | 995,5 |
| 70 | Yerbas Buenas | 05-05-2026 17:15 | 17,3 | 76,3 | 0 | 0 | 95 | 19,4 | 995,8 |
| 69 | Yerbas Buenas | 05-05-2026 17:00 | 17,5 | 75,3 | 0 | 0 | 97 | 38,1 | 995,6 |
| 68 | Yerbas Buenas | 05-05-2026 16:45 | 17,8 | 73,5 | 0 | 0 | 53 | 41,9 | 995,3 |
| 67 | Yerbas Buenas | 05-05-2026 16:30 | 18,4 | 70,6 | 0 | 0 | 338 | 59,4 | 995,4 |
| 66 | Yerbas Buenas | 05-05-2026 16:15 | 18,5 | 68,4 | 0 | 0 | 338 | 64,4 | 995,1 |
| 65 | Yerbas Buenas | 05-05-2026 16:00 | 18,8 | 67,5 | 0 | 0 | 327 | 75,6 | 995,2 |
| 64 | Yerbas Buenas | 05-05-2026 15:45 | 19 | 65,7 | 0 | 0 | 24 | 79,4 | 994,8 |
| 63 | Yerbas Buenas | 05-05-2026 15:30 | 19,1 | 65,3 | 0 | 0 | 357 | 116,9 | 994,8 |
| 62 | Yerbas Buenas | 05-05-2026 15:15 | 19,5 | 64,1 | 0 | 0 | 45 | 108,1 | 994,5 |
| 61 | Yerbas Buenas | 05-05-2026 15:00 | 19,4 | 63,2 | 0 | 0 | 35 | 131,9 | 994,3 |
| 60 | Yerbas Buenas | 05-05-2026 14:45 | 20 | 61,7 | 0 | 0 | 352 | 154,4 | 994,3 |
| 59 | Yerbas Buenas | 05-05-2026 14:30 | 20,3 | 62,5 | 0 | 0 | 35 | 156,9 | 994,3 |
| 58 | Yerbas Buenas | 05-05-2026 14:15 | 21,4 | 58,6 | 0 | 0 | 53 | 271,9 | 993,9 |
| 57 | Yerbas Buenas | 05-05-2026 14:00 | 20,5 | 61,4 | 0 | 0 | 59 | 358,1 | 994,1 |
| 56 | Yerbas Buenas | 05-05-2026 13:45 | 20,2 | 62,3 | 0 | 0 | 66 | 308,1 | 994,4 |
| 55 | Yerbas Buenas | 05-05-2026 13:30 | 19,8 | 64,1 | 0 | 0 | 69 | 286,9 | 994,2 |
| 54 | Yerbas Buenas | 05-05-2026 13:15 | 20,7 | 62,1 | 0 | 0 | 313 | 385,6 | 994,8 |
| 53 | Yerbas Buenas | 05-05-2026 13:00 | 19,9 | 64,8 | 0 | 0 | 300 | 376,9 | 994,6 |
| 52 | Yerbas Buenas | 05-05-2026 12:45 | 19,6 | 64,8 | 0 | 0 | 292 | 271,9 | 995,3 |
| 51 | Yerbas Buenas | 05-05-2026 12:30 | 19,1 | 65,1 | 0 | 0 | 302 | 241,9 | 995,3 |
| 50 | Yerbas Buenas | 05-05-2026 12:15 | 19,6 | 66,1 | 0 | 0 | 10 | 371,9 | 995 |
| 49 | Yerbas Buenas | 05-05-2026 12:00 | 19,1 | 69,1 | 0 | 0 | 73 | 354,4 | 995,1 |
| 48 | Yerbas Buenas | 05-05-2026 11:45 | 19,1 | 70,4 | 0 | 0 | 44 | 364,4 | 995,2 |
| 47 | Yerbas Buenas | 05-05-2026 11:30 | 18,7 | 72,2 | 0 | 0 | 98 | 239,4 | 995,4 |
| 46 | Yerbas Buenas | 05-05-2026 11:15 | 19,5 | 68,3 | 0 | 0 | 161 | 264,4 | 995,4 |
| 45 | Yerbas Buenas | 05-05-2026 11:00 | 19,1 | 71,5 | 0 | 0 | 312 | 468,1 | 995,4 |
| 44 | Yerbas Buenas | 05-05-2026 10:45 | 18,4 | 72,4 | 0 | 0 | 303 | 358,1 | 995,6 |
| 43 | Yerbas Buenas | 05-05-2026 10:30 | 17,9 | 75,9 | 0 | 0 | 298 | 324,4 | 996,1 |
| 42 | Yerbas Buenas | 05-05-2026 10:15 | 16,5 | 82,2 | 0 | 0 | 300 | 334,4 | 995,7 |
| 41 | Yerbas Buenas | 05-05-2026 10:00 | 15,4 | 85,2 | 0 | 0 | 295 | 180,6 | 996,1 |
| 40 | Yerbas Buenas | 05-05-2026 09:45 | 15,3 | 85,8 | 0 | 0 | 28 | 190,6 | 995,9 |
| 39 | Yerbas Buenas | 05-05-2026 09:30 | 14,2 | 88,6 | 0 | 0 | 95 | 124,4 | 996,1 |
| 38 | Yerbas Buenas | 05-05-2026 09:15 | 13,6 | 91,4 | 0 | 0 | 95 | 128,1 | 996,5 |
| 37 | Yerbas Buenas | 05-05-2026 09:00 | 13,2 | 93 | 0 | 0 | 95 | 88,1 | 996,8 |
| 36 | Yerbas Buenas | 05-05-2026 08:45 | 12,6 | 93,6 | 0 | 0 | 90 | 80,6 | 997 |
| 35 | Yerbas Buenas | 05-05-2026 08:30 | 12,2 | 93,6 | 0 | 0 | 108 | 43,1 | 997,2 |
| 34 | Yerbas Buenas | 05-05-2026 08:15 | 12,1 | 93,6 | 0 | 0 | 136 | 28,1 | 997,2 |
| 33 | Yerbas Buenas | 05-05-2026 08:00 | 12 | 93,6 | 0 | 0 | 284 | 26,9 | 997,5 |
| 32 | Yerbas Buenas | 05-05-2026 07:45 | 11,9 | 93,7 | 0 | 0 | 271 | 6,9 | 997,8 |
| 31 | Yerbas Buenas | 05-05-2026 07:30 | 11,8 | 93,6 | 0 | 0 | 104 | 0,6 | 997,4 |
| 30 | Yerbas Buenas | 05-05-2026 07:15 | 12 | 93,7 | 0 | 0 | 145 | 0,6 | 997,1 |
| 29 | Yerbas Buenas | 05-05-2026 07:00 | 12,1 | 93,7 | 0 | 0 | 48 | 0,6 | 997,9 |
| 28 | Yerbas Buenas | 05-05-2026 06:45 | 11,9 | 93,7 | 0 | 0 | 292 | 0,6 | 997,4 |
| 27 | Yerbas Buenas | 05-05-2026 06:30 | 12 | 93,7 | 0 | 0 | 317 | 0,6 | 997,8 |
| 26 | Yerbas Buenas | 05-05-2026 06:15 | 11,8 | 93,7 | 0 | 0 | 324 | 0,6 | 997,8 |
| 25 | Yerbas Buenas | 05-05-2026 06:00 | 11,6 | 93,6 | 0 | 0 | 7 | 0,6 | 998,1 |
| 24 | Yerbas Buenas | 05-05-2026 05:45 | 11,6 | 93,8 | 0 | 0 | 264 | 0,6 | 997,9 |
| 23 | Yerbas Buenas | 05-05-2026 05:30 | 11,4 | 94,1 | 0 | 0,5 | 63 | 0,6 | 998,2 |
| 22 | Yerbas Buenas | 05-05-2026 05:15 | 11,1 | 94,1 | 0 | 0 | 108 | 0,6 | 996,9 |
| 21 | Yerbas Buenas | 05-05-2026 05:00 | 11,2 | 94,1 | 0 | 0 | 91 | 0,6 | 998,2 |
| 20 | Yerbas Buenas | 05-05-2026 04:45 | 11,1 | 94,1 | 0 | 0 | 91 | 0,6 | 997,4 |
| 19 | Yerbas Buenas | 05-05-2026 04:30 | 11,1 | 94,1 | 0 | 0 | 337 | 0,6 | 998,8 |
| 18 | Yerbas Buenas | 05-05-2026 04:15 | 11 | 94,1 | 0 | 0 | 265 | 0,6 | 998,3 |
| 17 | Yerbas Buenas | 05-05-2026 04:00 | 10,9 | 94 | 0 | 0 | 265 | 0,6 | 997,8 |
| 16 | Yerbas Buenas | 05-05-2026 03:45 | 10,7 | 94 | 0 | 0 | 265 | 0,6 | 997,6 |
| 15 | Yerbas Buenas | 05-05-2026 03:30 | 10,8 | 94 | 0 | 0 | 265 | 0,6 | 998,1 |
| 14 | Yerbas Buenas | 05-05-2026 03:15 | 10,8 | 94 | 0 | 0 | 265 | 0,6 | 998,2 |
| 13 | Yerbas Buenas | 05-05-2026 03:00 | 10,8 | 94 | 0 | 0 | 265 | 0,6 | 998 |
| 12 | Yerbas Buenas | 05-05-2026 02:45 | 10,7 | 93,9 | 0 | 0 | 265 | 0,6 | 997,7 |
| 11 | Yerbas Buenas | 05-05-2026 02:30 | 10,6 | 93,9 | 0 | 0 | 265 | 0,6 | 998 |
| 10 | Yerbas Buenas | 05-05-2026 02:15 | 10,7 | 93,9 | 0 | 0 | 265 | 0,6 | 998,1 |
| 9 | Yerbas Buenas | 05-05-2026 02:00 | 10,6 | 93,8 | 0 | 0 | 265 | 0,6 | 998,4 |
| 8 | Yerbas Buenas | 05-05-2026 01:45 | 10,6 | 93,8 | 0 | 0 | 265 | 0,6 | 998,6 |
| 7 | Yerbas Buenas | 05-05-2026 01:30 | 10,6 | 93,8 | 0 | 0 | 265 | 0,6 | 998,5 |
| 6 | Yerbas Buenas | 05-05-2026 01:15 | 10,8 | 93,7 | 0 | 0 | 265 | 0,6 | 998,6 |
| 5 | Yerbas Buenas | 05-05-2026 01:00 | 10,8 | 93,7 | 0 | 0 | 265 | 0,6 | 998,7 |
| 4 | Yerbas Buenas | 05-05-2026 00:45 | 11 | 93,7 | 0 | 0 | 265 | 0,6 | 998,7 |
| 3 | Yerbas Buenas | 05-05-2026 00:30 | 11 | 93,6 | 0 | 0 | 265 | 0,6 | 998,8 |
| 2 | Yerbas Buenas | 05-05-2026 00:15 | 11,4 | 93,6 | 0 | 0 | 265 | 0,6 | 998,8 |
| 1 | Yerbas Buenas | 05-05-2026 00:00 | 11,4 | 93,6 | 0 | 0 | 265 | 0,6 | 998,8 |